TimeEST,TemperatureF,Dew PointF,Humidity,Sea Level PressureIn,VisibilityMPH,Wind Direction,Wind SpeedMPH,Gust SpeedMPH,PrecipitationIn,Events,Conditions,WindDirDegrees,DateUTC
12:49 AM,-9999,-9999,N/A,30.30,20.0,WSW,11.5,-,N/A,,Mostly Cloudy,240,1998-01-02 05:49:00
1:47 AM,41.0,15.8,36,30.30,20.0,SW,10.4,-,N/A,,Overcast,230,1998-01-02 06:47:00
2:49 AM,41.0,17.6,39,30.32,20.0,SSW,8.1,-,N/A,,Mostly Cloudy,210,1998-01-02 07:49:00
3:49 AM,41.0,17.6,39,30.33,20.0,SSW,6.9,-,N/A,,Mostly Cloudy,210,1998-01-02 08:49:00
4:49 AM,42.8,15.8,34,30.34,20.0,SSW,8.1,-,N/A,,Overcast,200,1998-01-02 09:49:00
5:47 AM,42.8,17.6,36,30.37,20.0,SSW,8.1,-,N/A,,Overcast,200,1998-01-02 10:47:00
6:47 AM,42.8,17.6,36,30.36,20.0,SSW,9.2,-,N/A,,Overcast,200,1998-01-02 11:47:00
7:45 AM,42.8,17.6,36,30.34,25.0,SSW,8.1,-,N/A,,Overcast,210,1998-01-02 12:45:00
8:45 AM,42.8,17.6,36,30.37,25.0,SSW,11.5,-,N/A,,Overcast,200,1998-01-02 13:45:00
9:45 AM,42.8,19.4,39,30.39,25.0,SSW,10.4,-,N/A,,Overcast,200,1998-01-02 14:45:00
10:45 AM,44.6,19.4,37,30.38,25.0,SSW,11.5,-,N/A,,Overcast,210,1998-01-02 15:45:00
11:45 AM,44.6,19.4,37,30.36,25.0,SW,10.4,-,N/A,,Overcast,230,1998-01-02 16:45:00
12:50 PM,46.4,19.4,34,30.34,25.0,SSW,11.5,-,N/A,,Mostly Cloudy,200,1998-01-02 17:50:00
1:45 PM,48.2,21.2,34,30.32,25.0,SW,9.2,17.3,N/A,,Scattered Clouds,220,1998-01-02 18:45:00
2:45 PM,50.0,23.0,35,30.30,25.0,SSW,11.5,-,N/A,,Scattered Clouds,210,1998-01-02 19:45:00
4:45 PM,48.2,26.6,43,30.31,25.0,SSW,11.5,17.3,N/A,,Mostly Cloudy,210,1998-01-02 21:45:00
5:45 PM,48.2,26.6,43,30.32,20.0,SSW,9.2,-,N/A,,Mostly Cloudy,200,1998-01-02 22:45:00
6:45 PM,48.2,26.6,43,30.33,20.0,SSW,6.9,-,N/A,,Mostly Cloudy,200,1998-01-02 23:45:00
7:45 PM,48.2,24.8,40,30.32,20.0,South,6.9,-,N/A,,Mostly Cloudy,190,1998-01-03 00:45:00
9:45 PM,48.2,21.2,34,30.32,20.0,South,6.9,-,N/A,,Mostly Cloudy,190,1998-01-03 02:45:00
10:45 PM,50.0,19.4,30,30.31,20.0,SSW,6.9,-,N/A,,Overcast,200,1998-01-03 03:45:00
11:48 PM,50.0,19.4,30,30.32,20.0,SSW,9.2,-,N/A,,Overcast,200,1998-01-03 04:48:00